Regional Weather Roundup
Issued by NWS Charleston, SC

Current Version | Previous Version | Text Only | Print | Product List | Glossary On
Versions: 1 2 3 4 5 6 7 8 9 10 11 12 13 14 15 16 17 18 19 20 21 22 23 24 25 26 27 28 29 30 31 32 33 34 35 36 37 38 39 40 41 42 43 44 45 46 47 48 49 50
000 ASUS42 KCHS 251013 RWRCHS REGIONAL WEATHER ROUNDUP NATIONAL WEATHER SERVICE CHARLESTON SC 600 AM EDT WED MAY 25 2016 NOTE: "FAIR" INDICATES FEW OR NO CLOUDS BELOW 12,000 FEET WITH NO SIGNIFICANT WEATHER AND/OR OBSTRUCTIONS TO VISIBILITY. NOT ALL STATIONS ARE QUALITY CONTROLLED. USE DATA WITH CAUTION... ESPECIALLY DEWPOINT OBSERVATIONS. SCZ027-030-031-034>040-042>050-251100- ...SOUTHEAST SOUTH CAROLINA... CITY SKY/WX TMP DP RH WIND PRES REMARKS N CHARLESTON CLOUDY 66 63 90 CALM 30.20R WATERFRONT PRK N/A 70 68 93 CALM 30.17S MOUNT PLEASANT FAIR 63 63 100 CALM 30.20R JOHNS ISLAND FAIR 64 63 94 CALM 30.20R PINOPOLIS N/A 70 64 83 CALM 30.11R MONCKS CORNER FAIR 55 54 94 CALM 30.20R SUMMERVILLE FAIR 59 59 100 CALM 30.20R BEAUFORT MCAS PTCLDY 66 64 93 CALM 30.19R BEAUFORT ARPT FAIR 68 66 94 CALM 30.19R FOG HILTON HEAD IS NOT AVBL WALTERBORO MOSUNNY 63 63 100 CALM 30.20R ALLENDALE FAIR 63 63 100 CALM 30.18S FOG ...SOUTHERN MIDLANDS AND PEE DEE... CITY SKY/WX TMP DP RH WIND PRES REMARKS GEORGETOWN FAIR 55 54 94 CALM 30.21R KINGSTREE FAIR 59 54 82 CALM 30.20R ORANGEBURG FOG 62 60 93 CALM 30.19R VSB 1 BARNWELL FAIR 64 64 100 CALM 30.20R FOG AIKEN FAIR 63 59 88 CALM 30.22S MANNING FAIR 61 59 94 CALM 30.20R COLUMBIA CLEAR 65 62 90 W3 30.18R SUMTER PTCLDY 62 60 92 SE2 30.17R FLORENCE CLEAR 60 57 89 CALM 30.20R MYRTLE BEACH CLEAR 63 54 72 CALM 30.22R N MYRTLE BEACH CLEAR 60 59 96 CALM 30.20R $$ GAZ063-065-086>088-099>101-113>116-118-119-134>141-150-251100- ...SOUTHEAST GEORGIA... CITY SKY/WX TMP DP RH WIND PRES REMARKS SAVANNAH ARPT PTCLDY 66 63 90 CALM 30.19S HUNTER AAF PTCLDY 66 66 100 CALM 30.17R FORT STEWART CLEAR 64 61 88 CALM 30.16R STATESBORO CLEAR 63 63 100 CALM 30.19S SYLVANIA MOSUNNY 65 64 94 CALM 30.19S CLAXTON FAIR 61 61 100 CALM 30.18S FOG ...CSRA...CENTRAL AND FAR SOUTHEAST GEORGIA... CITY SKY/WX TMP DP RH WIND PRES REMARKS THOMSON CLEAR 61 60 96 CALM 30.23R AUGUSTA-BUSH FOG 57 57 100 CALM 30.18R VSB 1/2 AUGUSTA-DANIEL CLEAR 68 59 73 SW5 30.19R SWAINSBORO FAIR 61 59 94 CALM 30.20R VIDALIA CLEAR 63 61 94 CALM 30.19R EASTMAN FAIR 57 57 100 CALM 30.21R FOG HAZLEHURST FAIR 68 62 82 CALM 30.17R ALMA CLEAR 60 60 100 CALM 30.17S WAYCROSS CLOUDY 64 63 96 CALM 30.18R JESUP FAIR 54 54 100 CALM 30.19R BAXLEY FAIR 63 61 94 CALM 30.18R BRUNSWICK FOG 61 61 100 CALM 30.19R VSB 1/2 SAINT SIMONS CLEAR 67 66 97 CALM 30.18R $$ SCZ027-028-034-036>038-045-046-048>050-GAZ119-141-251100- ...LAKE AND SUPPLEMENTAL COASTAL OBSERVATIONS... STATION/POSITION TIME TEMP WIND PRES WAVE SWELL AIR SEA DIR/SP/G HT/PER HT/PER/DIR (UTC) (F) (DEG/KT/KT) (MB) (FT/S) (FT/S/D) WINYAH BAY NOT AVBL LAKE MURRAY 0900 68 CALM / 1 1021.0F ACE BASIN NERRS NOT AVBL FORT PULASKI 0900 72 75 290/ 2/ 3 1022.3S SAPELO ISLAND 0900 73 240/ 4 1022.0S $$ ANZ835-935-AMZ111-154-330-350-352-354-370-450-454-472-251100- ...C-MAN AND BUOY OBSERVATIONS... STATION/POSITION TIME TEMP WIND PRES WAVE SWELL AIR SEA DIR/SP/G HT/PER HT/PER/DIR (UTC) (F) (DEG/KT/KT) (MB) (FT/S) (FT/S/D) BUOY 41004 0950 75 75 220/ 2/ 2 1022.3R 2/ 9 2/ 9 BUOY 41008 0950 76 75 200/ 8/ 10 1022.0R 2/ 8 2/ 80/ 8 FOLLY BEACH CMAN 1000 72 270/ 2/ 2 1022.7R CAPERS NEARSHORE 0908 74 74 230/ 4/ 6 1022.1R FRIPP NEARSHORE 0908 75 75 210/ 6/ 8 1021.5F STATION/POSITION TIME TEMP WIND PRES WAVE SWELL AIR SEA DIR/SP/G HT/PER HT/PER/DIR (UTC) (F) (DEG/KT/KT) (MB) (FT/S) (FT/S/D) 5E ST. MARYS GA 0921 77 N/A 3/ 8 FRYING PAN BUOY 0900 75 76 250/ 10/ 12 1022.1R BUOY 41025 0950 67 67 270/ 8/ 8 1022.2R 3/ 5 3/200/ 5 CAPE LOOKOUT NC 1000 68 270/ 8/ 9 1022.3R BUOY 41002 0950 73 78 50/ 4/ 6 1022.8R 4/ 8 3/ 40/ 8 BUOY 41010 0920 76 78 80/ 4/ 6 1022.1F ST AUGUSTINE FL 1000 77 78 180/ 9/ 13 1022.6R $$

USA.gov is the U.S. government's official web portal to all federal, state and local government web resources and services.